Theta_e
336 333 333 335 337 338 338 338 337 336 335 334 330 323 319 315 312 312 312 312 314 315 316 318 320 324 327 329 330 330 330 331 332 333 334 335 336 337 337 337 337 338 338 336 336 336 335 335 335 335 334 332 332 332 331 330 327 324 324 328 330 332 332 332 333 332 332 332 332 332 332 332 331 329 328 326 324 323 322 322 321 318 315 315 316
334 333 332 333 336 337 338 337 337 336 335 334 331 324 320 317 312 312 312 312 314 315 316 317 319 323 327 330 333 334 335 335 336 336 337 337 337 337 337 338 338 338 338 337 337 336 336 335 335 334 331 328 328 328 327 324 321 324 329 332 333 333 333 333 332 330 330 329 327 330 331 330 329 328 327 325 323 323 322 322 320 315 312 312 314
334 332 332 332 334 336 337 338 337 337 335 335 333 327 321 318 313 311 312 312 314 314 315 316 318 321 325 330 333 335 335 336 337 337 337 337 338 337 337 338 338 338 337 337 337 336 335 335 334 332 328 326 324 323 321 319 324 330 332 332 332 332 332 332 329 326 326 326 324 325 327 327 328 329 329 326 323 322 322 321 317 312 309 311 312
336 331 331 332 332 335 337 337 337 337 335 335 334 329 322 318 313 312 312 312 314 315 315 315 318 320 324 329 332 334 336 337 337 337 337 337 337 337 337 337 337 337 336 335 335 334 334 334 332 330 328 326 325 322 318 321 329 332 331 332 334 333 333 332 330 328 325 326 324 322 323 326 330 330 330 328 322 317 317 316 312 309 308 309 311
335 330 329 330 331 334 336 338 337 337 336 335 335 331 324 318 313 312 312 312 313 314 315 315 317 320 325 329 332 334 336 336 336 337 336 336 336 336 336 336 336 336 335 334 333 333 332 331 330 328 325 323 322 320 319 327 331 330 331 333 335 334 334 334 333 331 325 324 322 317 320 326 332 332 330 324 315 311 310 309 308 308 308 309 309
334 329 329 329 331 333 336 338 337 337 336 335 335 332 326 318 312 311 312 312 313 314 315 315 316 320 325 329 332 334 336 335 334 334 334 334 334 335 335 334 335 334 333 331 330 328 327 325 322 320 317 316 317 319 324 330 330 330 331 332 334 334 335 335 333 329 321 321 317 311 315 323 329 329 326 316 308 308 308 308 308 308 308 308 308
334 328 329 328 330 333 336 338 337 337 336 336 335 333 328 319 312 311 313 312 313 313 315 316 316 320 324 328 330 332 332 333 333 332 333 332 332 332 332 332 331 329 327 325 323 320 317 316 314 312 310 310 313 320 328 331 330 330 330 330 331 332 333 333 332 329 322 321 318 311 310 315 319 319 317 311 307 308 308 308 308 308 308 308 310
333 329 329 327 330 333 337 337 337 337 336 336 334 333 328 320 312 311 313 313 313 312 314 316 316 318 321 324 325 326 328 329 331 331 331 330 330 330 329 327 324 322 320 317 314 312 310 309 309 308 308 308 313 324 330 330 329 329 329 329 330 330 331 330 330 329 325 323 321 315 309 309 311 310 310 308 308 308 308 309 308 308 308 311 312
334 330 329 328 330 333 336 337 337 336 336 336 334 333 329 320 312 311 313 314 313 312 313 315 316 317 318 319 319 321 324 326 329 330 329 328 327 326 323 320 317 315 313 311 309 309 308 308 308 308 308 307 316 327 330 329 328 328 328 329 330 329 329 329 328 328 327 324 321 315 309 308 309 308 308 308 308 308 309 309 309 309 309 311 313
335 330 329 329 331 334 335 336 336 336 336 335 335 333 329 319 311 311 313 314 314 313 312 314 316 316 317 316 316 319 321 324 325 326 326 324 323 320 317 314 312 311 309 309 308 309 308 308 307 308 308 308 321 329 328 328 327 328 329 331 331 329 328 328 327 327 326 323 320 313 308 308 309 309 309 308 308 309 309 310 311 311 310 311 314
333 330 329 329 331 333 334 335 335 335 335 335 335 333 328 318 310 311 313 314 314 314 313 313 314 316 316 316 316 317 319 322 322 321 320 319 318 315 313 311 310 309 309 309 309 309 308 308 307 308 307 310 322 328 326 326 327 329 331 331 330 327 326 325 324 324 323 321 316 311 308 308 309 309 309 309 309 309 310 311 312 312 311 311 312
331 330 329 329 330 331 332 333 334 334 334 334 334 332 326 315 310 311 312 313 314 314 314 313 313 314 316 316 315 315 316 317 318 317 316 316 314 312 311 310 309 309 309 309 309 309 308 308 308 308 308 311 320 325 325 327 328 331 332 332 328 324 325 325 326 325 322 320 314 309 309 309 309 310 310 310 310 310 310 311 312 312 311 311 310
331 330 329 329 329 330 330 331 332 332 331 331 330 329 323 313 311 311 311 313 313 314 314 314 313 313 314 316 316 315 314 314 315 314 313 313 311 311 310 310 309 310 310 310 310 309 309 309 308 309 308 310 319 324 325 328 330 332 332 332 328 326 327 326 326 323 321 318 312 310 310 310 311 310 310 310 311 311 311 312 313 312 311 312 312
331 331 329 329 328 328 328 328 328 327 326 325 325 325 320 312 311 310 310 311 312 314 314 315 314 313 313 314 315 315 315 314 313 312 312 311 311 311 310 310 310 310 310 310 310 310 309 309 308 308 308 313 323 327 328 330 332 332 332 331 329 327 326 323 321 321 319 314 311 311 311 312 311 312 317 317 314 313 314 313 313 312 311 313 315
333 331 330 329 328 328 327 325 324 323 321 320 322 322 317 312 310 310 310 311 312 313 314 315 315 314 313 313 314 315 315 315 314 313 312 311 311 311 310 310 310 310 311 311 311 310 310 309 309 309 311 319 326 328 329 332 332 332 331 330 328 325 323 319 318 320 319 314 311 311 311 312 312 314 319 319 316 317 320 318 314 312 311 313 315
337 332 331 331 330 329 327 325 323 320 318 318 320 319 316 312 310 310 310 310 312 313 313 314 315 315 314 313 312 313 315 315 315 314 312 311 311 311 311 311 311 311 311 311 311 311 310 310 309 310 315 323 327 329 330 331 331 331 331 330 326 322 322 320 320 322 318 314 311 311 311 311 313 314 314 316 316 318 322 321 317 313 313 313 313
342 334 331 332 331 330 328 325 321 319 317 317 318 317 315 312 310 310 310 310 311 312 313 314 314 315 314 314 313 313 313 315 315 314 313 312 311 311 311 311 311 311 311 311 311 311 311 311 310 310 316 322 326 330 330 330 330 331 331 329 325 323 324 323 324 322 318 314 312 311 311 311 312 313 313 314 317 317 317 317 316 313 312 313 313
344 337 332 332 332 331 329 325 320 318 317 316 315 316 315 312 310 310 310 310 311 311 312 313 313 314 314 314 314 313 313 314 314 314 314 314 313 312 311 312 311 311 312 311 311 311 311 311 311 311 315 321 326 329 330 330 331 331 329 328 326 326 325 325 325 323 320 317 314 314 313 313 313 313 313 313 316 316 314 313 313 312 313 313 312
346 340 332 333 332 331 329 324 320 318 317 316 315 315 314 313 310 310 311 310 311 311 311 312 312 313 313 314 314 314 313 313 313 313 314 314 314 313 312 312 312 312 312 312 312 311 311 311 311 311 313 319 324 328 330 331 332 332 330 329 328 327 325 325 326 326 325 320 317 317 316 316 316 316 316 315 316 315 314 313 313 313 313 313 312
346 341 334 333 333 331 328 324 320 318 317 316 314 315 314 313 311 311 311 311 311 311 311 311 311 312 312 313 313 313 313 313 313 313 313 314 314 314 314 313 312 312 312 312 312 312 311 311 311 311 312 317 323 328 330 331 333 333 331 330 329 327 326 327 329 330 329 323 319 318 318 318 318 318 318 317 315 313 312 312 313 313 312 313 313
346 343 336 333 333 331 328 324 320 317 316 315 315 314 314 314 313 312 312 312 312 311 311 311 311 312 312 312 313 312 313 313 313 313 313 314 314 315 314 313 313 313 313 312 312 312 311 310 310 311 312 316 322 326 329 331 332 332 331 330 329 328 329 329 331 332 330 325 322 321 320 320 319 319 319 318 315 313 312 311 311 311 311 312 312
345 343 336 333 333 332 330 326 322 318 316 315 315 314 314 314 314 314 314 313 313 313 312 311 312 311 311 312 312 312 312 312 313 312 312 313 315 315 316 315 314 314 314 314 313 312 311 311 310 310 312 315 319 324 327 329 330 331 331 330 329 330 330 330 331 331 329 326 323 322 321 321 321 320 321 319 317 315 313 312 311 311 310 310 310
342 340 336 334 334 333 332 330 326 322 319 318 316 315 314 315 315 315 314 314 314 314 313 313 313 312 312 312 311 312 311 311 312 312 312 312 314 315 316 316 316 316 316 316 314 313 312 312 311 312 313 314 318 322 326 329 331 332 333 330 329 330 329 328 330 331 329 327 325 323 322 321 322 322 322 321 318 317 316 314 313 312 310 309 309
339 339 337 336 335 335 334 331 329 325 323 321 319 318 317 317 317 317 316 315 315 314 314 314 314 313 313 312 312 312 312 312 312 312 313 312 312 314 316 317 317 317 317 317 317 315 314 313 313 314 315 316 317 323 326 327 329 331 333 332 329 330 330 328 330 331 330 328 327 324 322 322 323 323 323 322 320 319 318 317 315 313 312 311 310
337 338 336 336 335 334 333 331 328 326 325 323 321 321 320 321 322 322 321 320 319 318 317 317 316 316 315 315 315 315 315 315 314 316 319 317 313 312 313 315 316 318 319 319 319 319 317 316 316 316 318 319 319 324 325 325 327 330 332 333 331 331 331 331 331 331 331 331 329 326 323 323 324 324 324 323 323 322 321 319 319 316 315 313 312
337 338 336 337 336 334 331 329 327 326 325 324 322 322 323 325 326 327 327 325 324 324 324 323 321 321 322 322 322 323 324 324 323 324 327 326 322 320 318 316 315 317 319 320 320 320 320 319 318 319 321 322 322 323 323 327 331 332 332 334 333 333 332 332 332 332 332 332 330 329 326 323 324 325 324 324 324 323 322 322 321 319 318 317 316
338 339 337 337 337 335 332 330 329 327 326 323 321 323 325 327 328 329 329 328 328 329 329 329 327 327 328 330 330 330 331 332 331 331 331 331 329 328 328 326 322 317 317 319 321 321 322 322 322 320 321 322 323 322 323 328 334 334 334 333 333 333 333 333 333 333 333 332 331 330 327 324 324 325 325 325 324 323 323 323 322 321 321 320 319
340 340 338 338 337 336 335 332 331 329 327 325 323 324 327 328 330 331 331 331 331 331 331 331 331 331 332 333 334 334 335 334 333 332 332 332 330 330 330 332 330 324 318 316 319 321 322 324 324 322 321 321 321 322 325 329 333 334 335 334 331 333 333 333 333 332 332 331 331 331 328 325 325 326 325 324 323 323 323 322 322 322 321 321 319
341 340 339 340 338 337 337 334 332 331 331 329 325 326 329 330 331 332 333 332 332 332 332 332 333 334 334 335 335 335 335 335 334 333 332 332 331 331 332 332 333 331 325 317 315 318 321 323 325 325 323 322 321 322 327 331 332 334 335 334 332 332 332 332 332 332 332 332 332 332 329 326 327 326 325 324 323 324 323 322 322 322 321 321 319
340 340 340 340 340 338 337 336 333 334 334 331 328 328 331 332 333 333 334 333 333 334 334 334 335 335 335 335 334 334 334 335 334 334 333 332 332 331 332 333 333 333 331 325 316 314 317 320 323 324 324 324 323 324 330 333 334 334 335 334 333 332 330 331 332 332 332 332 332 332 329 328 328 327 325 323 323 323 323 323 324 323 322 321 320
340 340 340 339 340 339 338 336 335 336 336 334 331 331 333 334 335 336 336 336 335 336 336 335 336 336 336 335 333 333 333 334 334 334 333 333 332 331 331 332 333 333 333 332 325 318 314 315 318 320 323 324 324 328 333 335 334 334 335 334 333 332 331 331 333 332 332 332 332 331 329 328 328 326 324 323 323 322 323 324 324 323 322 320 319
340 339 339 339 340 341 339 337 336 337 337 336 334 334 335 335 336 337 337 337 336 336 336 336 336 336 335 333 332 332 332 333 334 334 333 332 331 331 332 332 332 332 333 333 332 328 321 316 315 316 319 322 324 328 332 334 335 334 335 333 332 332 330 329 332 333 332 331 332 331 329 329 328 326 324 323 323 323 324 323 321 322 323 320 318
340 340 339 340 341 341 340 338 337 338 337 337 337 336 336 336 336 337 336 336 335 335 335 335 335 334 333 333 332 333 333 333 333 333 332 331 330 330 331 331 331 332 333 333 332 332 330 324 319 317 318 319 323 326 328 332 335 334 335 333 331 331 331 331 332 332 332 332 332 332 330 329 329 327 325 324 324 324 323 320 318 321 323 320 316
339 339 340 340 341 342 341 340 338 338 338 337 337 337 336 335 334 335 335 334 334 334 333 333 333 333 334 333 333 334 333 333 333 333 332 332 331 331 331 331 332 333 333 333 332 332 333 331 326 324 324 323 324 327 328 331 334 334 335 333 331 331 331 332 332 332 332 332 331 332 332 330 330 329 327 326 327 324 320 317 317 319 320 319 314
338 339 341 341 340 342 342 341 339 339 339 337 337 336 335 333 333 335 334 333 333 333 333 333 333 334 334 334 334 334 334 333 333 334 334 333 333 332 331 331 332 332 333 333 333 333 333 333 331 330 329 328 327 328 331 333 333 334 334 333 332 332 331 332 332 331 332 330 328 329 331 331 330 329 329 328 328 323 316 314 316 316 316 316 312
337 337 340 341 341 342 342 340 340 339 339 337 336 335 334 333 333 334 334 333 332 332 333 334 334 334 335 335 335 335 335 334 334 335 335 335 334 333 332 332 332 332 333 333 333 333 333 333 333 332 331 331 329 328 331 334 333 333 334 333 332 332 332 331 331 331 331 330 328 326 329 331 330 330 330 329 329 324 315 312 313 313 311 310 309
336 336 338 341 341 342 341 340 340 339 338 337 335 334 334 333 333 333 333 333 333 334 334 334 334 334 335 335 335 335 336 336 336 336 335 335 334 334 333 333 332 332 332 333 333 333 334 333 333 333 332 331 331 330 331 333 333 333 334 333 332 332 331 331 331 331 330 330 330 328 327 330 330 330 331 330 329 326 316 311 310 310 308 307 306
335 336 339 340 341 341 339 338 338 337 336 335 334 334 334 333 332 333 333 335 335 334 334 334 335 335 335 335 335 336 336 336 336 336 335 334 334 334 333 333 333 332 332 333 333 333 334 333 332 332 333 332 332 331 332 332 333 333 333 333 333 332 331 330 330 330 330 330 331 330 328 330 330 330 331 330 329 327 318 312 310 308 306 305 306
334 336 339 340 340 340 338 337 337 336 335 334 334 333 333 332 332 333 335 335 335 334 334 335 335 335 335 335 336 336 336 335 336 335 335 334 333 333 333 333 332 332 332 333 333 333 333 332 332 332 333 333 332 332 332 332 332 332 332 332 333 332 331 330 331 330 330 330 331 331 329 330 331 330 331 330 329 328 319 313 312 308 306 307 309
334 336 338 338 338 338 337 336 336 335 334 334 333 333 332 332 333 335 336 335 335 335 335 336 336 336 336 336 336 336 336 336 335 335 334 334 333 334 333 333 332 332 332 332 333 333 332 331 331 332 333 333 332 332 332 332 332 332 331 331 331 332 332 331 331 330 330 330 330 331 331 330 331 330 331 330 329 328 321 315 313 309 308 310 312
335 336 337 337 337 337 336 336 336 335 334 334 333 332 331 332 333 334 335 336 336 336 336 336 336 336 337 337 337 336 336 335 335 334 334 334 334 333 333 333 332 331 332 332 333 333 332 331 330 331 332 332 332 332 332 332 331 332 332 331 331 331 332 331 330 330 330 330 330 331 331 331 331 331 331 330 330 329 323 317 315 312 311 313 315
334 335 336 337 337 337 336 336 335 335 335 334 333 333 333 333 334 334 335 336 337 337 337 337 337 337 337 337 337 336 335 334 334 334 334 334 334 333 332 332 332 332 332 332 332 332 331 330 329 328 329 331 331 331 332 332 331 331 332 331 331 331 331 331 330 331 331 331 331 331 331 330 330 331 331 331 330 329 324 319 318 316 314 316 317
334 334 334 336 336 337 336 335 335 335 334 334 334 334 335 335 335 335 336 337 337 337 337 337 337 337 337 336 335 335 334 333 333 333 333 333 334 333 332 331 331 331 331 331 332 331 330 329 327 327 328 330 331 331 331 331 331 331 332 331 331 331 330 331 331 331 331 332 332 332 331 331 330 331 331 331 330 330 327 323 321 320 318 318 319
334 333 334 334 334 335 335 335 335 334 334 334 335 335 335 335 336 337 338 337 337 337 337 336 336 336 335 334 335 334 333 332 332 331 331 331 332 332 331 330 330 330 330 330 331 330 329 328 327 326 327 330 331 330 329 329 329 331 332 331 331 331 330 331 331 331 331 332 332 331 331 331 331 331 331 331 330 330 329 326 324 324 321 320 320
335 335 335 334 333 333 335 334 335 335 335 335 336 337 337 337 337 337 337 335 335 335 335 336 335 335 335 335 335 334 333 332 331 331 330 330 330 330 330 329 329 329 329 329 329 329 329 328 328 327 327 328 329 329 330 329 329 330 331 331 331 331 331 330 331 331 331 332 332 330 330 331 331 331 331 331 330 330 329 328 327 326 325 323 322
337 336 335 334 333 334 335 335 335 336 336 336 336 336 336 336 336 335 334 334 334 334 335 336 336 336 336 335 335 334 333 333 332 331 331 330 329 330 330 329 329 329 329 329 329 329 329 329 329 328 328 328 328 329 330 330 329 330 331 331 331 331 330 330 330 331 331 332 332 330 330 330 330 331 331 331 330 330 329 329 328 328 327 326 325
336 335 335 334 334 335 335 335 335 335 335 335 334 334 333 332 332 333 334 334 335 335 335 335 335 335 335 334 334 334 334 333 333 332 332 331 329 329 330 330 330 330 330 330 330 329 330 330 329 330 329 329 329 330 330 330 330 330 330 330 330 330 330 330 330 330 331 332 331 330 330 330 330 330 331 331 330 330 329 329 328 328 328 328 327
335 335 334 335 335 334 334 334 333 333 333 333 333 333 332 330 330 332 333 334 335 335 334 333 334 334 334 334 335 335 334 334 334 333 333 332 330 329 330 330 331 331 331 331 331 330 330 330 330 330 330 329 330 330 330 331 331 331 330 330 330 330 330 330 330 330 330 331 331 331 331 330 330 330 331 331 330 330 330 329 328 328 329 329 328
335 334 334 334 334 334 333 333 333 332 332 332 332 333 332 331 332 331 332 333 333 333 333 333 334 334 335 335 336 336 335 335 334 334 334 333 332 331 330 330 330 331 331 331 331 331 331 331 330 330 330 330 330 330 330 331 330 330 331 331 330 330 330 331 331 330 330 330 331 331 330 330 331 330 330 331 330 330 330 330 329 328 328 329 328
334 334 334 334 334 333 333 333 333 332 332 332 333 333 332 333 333 332 332 332 332 333 334 335 335 335 336 336 336 335 335 335 335 335 334 334 333 332 331 331 330 330 331 331 331 332 332 331 331 331 331 330 331 331 330 330 330 330 331 331 331 330 330 331 331 331 331 330 330 330 330 330 329 329 329 330 330 330 330 330 329 329 328 328 328
335 335 335 334 334 334 333 333 333 333 333 333 333 333 333 333 333 333 333 334 334 334 334 335 335 335 335 335 335 335 334 334 334 334 334 334 333 333 332 332 332 331 331 331 331 331 330 331 331 331 331 331 331 331 331 331 331 331 331 330 331 331 330 330 330 331 331 331 330 329 329 329 329 329 329 329 329 330 330 330 330 329 328 328 328
Wind_Speed
27 26 25 25 24 23 22 22 21 20 20 19 17 16 15 15 15 15 15 15 15 15 16 17 18 19 19 19 19 19 18 16 15 14 13 13 14 15 15 15 15 14 14 13 13 13 13 14 14 14 14 14 14 14 14 14 14 14 14 15 14 14 14 13 13 12 11 11 10 10 10 10 9 8 8 7 7 7 8 8 8 9 10 11 11
28 26 25 24 24 23 22 22 21 20 20 18 17 16 15 15 15 15 15 15 15 16 16 16 17 17 18 18 18 17 16 15 15 14 14 14 15 15 15 15 14 14 13 13 13 13 13 13 13 13 13 13 13 13 13 14 15 16 16 17 16 15 14 13 12 12 12 11 9 8 9 9 10 10 9 6 5 6 6 6 7 8 10 10 10
26 26 25 24 23 23 22 21 21 20 19 18 17 15 14 14 15 15 15 16 16 16 15 16 15 16 16 17 17 16 16 16 16 16 16 16 16 15 15 15 14 13 12 13 12 13 13 12 13 12 12 12 12 12 13 14 16 18 19 19 17 16 14 13 12 12 12 12 10 8 8 10 11 11 10 8 6 6 5 5 6 9 11 11 11
24 25 26 24 23 23 22 21 21 20 19 18 17 15 14 14 15 16 15 16 16 16 15 15 15 15 15 16 17 16 16 17 17 18 18 18 16 15 15 14 13 12 11 11 11 12 12 11 11 10 10 10 10 12 13 15 18 19 19 19 16 15 14 12 11 12 12 13 12 8 9 12 13 13 11 9 10 9 6 7 8 10 12 12 11
23 25 25 24 23 23 22 21 20 19 19 18 17 14 13 13 15 16 16 16 16 16 15 15 14 14 15 16 16 16 17 17 17 18 18 17 17 15 14 13 12 11 10 10 10 10 10 9 8 8 8 8 10 13 14 17 19 18 19 17 14 13 13 12 10 10 12 14 14 10 9 12 14 14 11 8 10 11 10 11 12 12 13 13 13
23 25 25 24 24 23 22 21 20 19 19 18 16 14 13 13 14 16 16 15 16 16 15 15 14 14 15 15 16 16 16 16 17 17 17 17 16 15 13 12 11 9 9 8 8 7 7 7 6 7 8 9 12 15 17 19 18 17 17 16 14 12 11 10 9 9 12 15 15 12 9 10 11 12 9 8 11 13 13 14 14 14 14 15 14
23 24 25 25 24 23 22 21 20 19 18 18 16 14 12 13 14 16 16 15 15 15 15 15 15 15 15 15 15 15 16 16 16 16 16 16 15 14 13 11 9 8 7 7 6 6 7 7 7 8 9 11 15 18 18 18 16 16 16 15 14 12 9 8 7 7 11 14 15 13 9 8 8 9 9 10 12 14 14 15 16 15 15 15 14
24 24 25 25 25 24 22 21 20 19 18 17 16 14 12 12 14 15 16 16 15 15 15 15 15 15 16 15 15 15 15 15 15 15 14 14 13 12 11 9 8 8 8 8 7 8 8 8 8 9 10 13 19 20 18 17 16 16 15 14 11 9 7 6 5 5 8 11 13 12 10 8 9 11 11 11 12 13 14 15 16 15 15 15 14
24 24 25 25 25 24 22 21 20 19 18 17 16 14 12 12 14 15 16 16 15 15 15 15 15 15 15 15 15 15 15 15 14 14 13 12 11 10 10 9 8 9 9 9 9 9 8 9 9 10 12 17 23 22 18 18 17 16 14 12 9 6 6 6 5 5 7 10 11 11 9 8 10 13 13 12 12 13 13 13 14 15 14 14 14
23 25 25 25 25 24 22 21 19 18 17 17 15 14 12 12 14 16 16 16 15 14 15 16 15 15 15 15 15 15 14 14 14 13 12 11 11 10 10 10 10 10 10 10 9 9 9 10 10 12 14 20 26 23 20 19 18 16 13 11 6 5 6 6 6 6 7 9 10 9 8 8 9 13 13 12 12 12 12 12 13 14 13 13 13
24 25 25 25 25 23 22 20 19 18 17 17 15 14 13 13 16 17 17 16 16 15 14 15 15 15 15 14 14 14 14 14 13 13 12 11 11 10 10 11 11 11 11 11 10 10 10 11 11 14 17 23 26 23 21 20 17 15 12 9 5 5 6 6 7 8 8 9 9 7 8 8 9 12 12 12 11 11 11 11 11 12 12 12 12
25 25 25 24 24 23 22 20 19 18 17 17 16 15 14 15 17 18 17 16 15 14 14 15 15 15 14 14 14 14 14 14 13 13 12 11 11 11 11 11 11 11 11 11 11 10 11 11 12 15 19 24 25 23 22 19 16 15 12 8 5 4 5 5 6 8 8 8 7 6 7 7 9 11 11 11 10 10 10 9 10 11 10 10 10
27 24 24 24 24 23 21 20 19 18 18 18 17 17 16 17 18 18 17 16 15 14 14 14 14 14 14 14 13 13 12 13 13 12 11 11 11 11 12 12 12 12 12 12 11 11 12 12 13 16 20 24 25 24 22 19 17 15 13 9 6 4 3 3 5 7 7 6 5 5 6 7 9 10 9 9 9 9 9 8 8 8 8 8 9
26 24 23 23 23 22 20 20 19 19 18 18 19 18 18 18 19 18 16 15 14 13 13 13 14 13 13 13 13 13 12 12 12 12 11 11 11 11 11 12 11 12 12 12 12 13 13 13 14 16 21 24 25 24 21 18 17 15 13 10 7 4 4 5 7 7 7 6 5 5 5 6 8 8 8 8 8 8 8 7 6 6 6 7 8
22 23 23 22 22 21 20 19 19 19 19 19 20 20 19 18 18 17 15 14 14 13 13 13 13 13 12 12 12 12 12 11 11 11 11 11 11 11 11 11 11 12 12 13 13 14 14 14 14 17 21 24 25 23 20 18 17 14 12 9 6 5 5 6 8 7 7 7 6 5 5 6 6 6 7 6 6 7 8 7 6 6 6 6 7
19 22 22 20 20 19 19 18 18 19 19 20 20 20 19 18 16 16 15 15 14 14 13 12 12 12 12 12 12 12 11 11 11 10 10 10 10 11 11 11 11 11 12 12 13 14 14 14 14 16 20 23 24 22 20 18 15 13 11 8 6 6 6 6 8 8 8 7 6 4 4 5 4 4 4 4 4 6 7 6 5 5 5 4 5
15 20 22 19 18 18 19 18 19 19 20 20 19 20 19 17 16 16 16 16 15 14 13 13 12 12 12 11 11 11 11 11 10 10 9 9 10 11 11 11 11 11 12 12 13 13 14 13 13 15 18 21 23 22 20 17 14 12 10 8 5 5 6 6 8 8 8 7 6 4 4 3 3 2 1 2 3 3 3 3 2 2 3 3 3
13 19 22 20 20 19 19 19 19 19 19 19 19 20 19 17 16 16 17 16 16 15 15 14 13 12 12 11 11 10 10 10 10 9 8 8 9 10 10 11 11 11 12 12 12 13 13 13 12 14 18 20 21 21 19 17 14 11 9 7 4 4 5 5 7 7 7 7 6 6 5 4 4 3 2 1 0 0 0 0 1 1 0 1 1
13 17 22 21 20 20 19 18 18 18 18 19 19 20 19 18 17 17 17 17 16 16 16 15 14 13 12 11 10 10 10 9 9 9 8 8 8 9 9 10 11 11 11 12 12 12 12 12 12 13 17 19 20 20 19 17 14 11 9 7 4 3 3 4 5 6 7 7 6 7 6 6 6 6 5 4 3 2 3 3 3 3 3 1 1
13 17 21 21 19 18 17 16 16 17 18 18 19 20 19 19 18 18 17 17 17 16 15 14 14 13 12 11 11 10 9 9 9 8 8 8 8 9 9 10 10 11 11 11 11 12 12 12 12 12 16 19 19 18 18 18 15 11 9 7 4 2 2 2 3 6 8 7 6 6 6 7 8 8 8 8 6 4 5 5 4 4 4 3 3
13 18 22 21 18 17 16 15 16 17 18 18 19 20 20 20 19 18 17 16 16 15 15 14 14 13 12 12 11 10 10 10 9 9 9 9 9 8 9 10 11 11 11 11 11 11 12 12 12 13 15 18 18 17 18 18 15 11 9 7 5 3 1 1 2 5 7 8 7 6 6 7 8 8 9 9 8 6 5 5 6 6 5 4 4
16 22 24 22 19 17 16 16 17 17 18 18 19 20 20 19 18 17 16 16 16 15 15 14 14 13 13 13 12 12 12 11 10 10 10 10 10 9 10 10 12 12 11 11 11 11 12 12 13 13 14 16 17 17 18 18 15 12 9 8 6 4 3 3 2 4 7 8 8 8 8 7 7 8 9 9 8 7 6 6 6 6 5 4 4
19 23 24 23 21 19 19 18 19 19 19 18 18 18 18 18 16 16 16 16 16 15 14 13 13 13 13 13 13 13 13 12 11 10 10 10 10 11 11 11 11 12 12 11 11 12 12 12 13 13 14 15 16 17 18 17 15 12 8 8 6 4 5 4 3 5 7 7 8 11 10 8 7 7 8 8 8 7 7 6 4 4 4 4 4
19 22 23 24 24 22 21 20 20 19 19 19 18 18 17 16 15 15 15 16 15 14 13 12 13 13 13 13 13 13 12 12 11 9 9 9 10 11 12 11 11 11 11 11 11 12 12 13 13 14 14 14 16 18 17 14 13 12 9 8 7 5 5 4 5 7 8 8 10 12 10 8 7 7 7 7 7 7 7 5 4 4 4 5 5
17 21 23 25 25 23 23 22 20 19 19 18 19 18 17 15 15 14 14 14 13 13 13 13 13 13 13 13 12 11 11 11 11 9 6 6 7 8 10 11 11 11 12 12 12 12 12 14 14 15 14 14 17 17 15 12 10 11 10 7 7 7 6 5 5 7 9 10 10 11 11 9 7 7 7 7 7 7 6 6 5 5 5 5 4
16 20 21 22 24 23 23 22 20 20 18 18 18 17 16 15 14 13 13 13 14 13 13 13 14 14 13 11 10 9 8 8 9 8 6 5 4 5 7 9 10 12 13 13 13 13 13 14 15 15 15 15 16 16 14 10 8 9 9 7 6 9 9 7 7 8 10 11 11 11 12 11 8 7 7 7 6 6 6 6 6 5 5 5 4
16 19 20 20 23 24 23 22 21 19 18 17 17 16 15 15 13 12 12 13 14 13 13 13 13 13 11 8 8 7 6 5 5 6 6 5 5 6 7 8 9 12 14 14 14 15 14 15 15 15 16 16 16 16 14 10 9 8 8 7 8 10 10 9 9 10 12 12 12 12 12 11 8 8 8 7 7 6 6 6 6 5 5 5 4
17 19 20 20 23 23 22 21 20 18 17 17 16 16 15 14 13 12 13 13 13 13 12 12 12 11 9 7 7 6 4 4 4 5 6 6 7 9 9 10 9 11 14 16 16 16 16 16 16 16 16 17 17 17 15 12 10 8 7 7 8 10 10 11 11 12 13 12 12 12 12 10 9 9 8 7 7 6 5 5 5 5 4 4 3
19 20 21 20 20 22 21 19 19 18 17 16 16 16 15 14 13 13 13 13 12 12 10 10 10 10 8 7 5 4 4 4 5 6 6 7 8 9 10 11 12 12 13 15 17 18 18 18 17 17 17 17 18 17 16 14 12 9 6 7 10 12 12 13 12 12 12 13 13 12 11 10 10 9 8 8 7 5 5 4 4 4 3 3 3
19 20 21 20 20 21 21 19 19 18 17 17 17 16 14 13 13 13 11 10 9 8 8 8 8 8 7 5 5 4 4 5 6 8 8 8 8 9 10 11 13 14 14 14 16 18 19 19 19 18 18 18 19 18 16 14 12 10 7 9 13 14 14 14 13 13 13 13 13 12 11 10 10 9 8 7 6 5 3 2 2 2 3 3 4
20 21 21 21 21 22 21 20 19 18 17 16 16 15 13 12 12 11 8 7 6 6 6 7 7 7 6 5 5 4 5 6 8 9 9 9 9 11 11 11 12 14 14 14 15 17 18 19 19 19 20 20 19 18 17 15 14 12 10 11 14 15 15 15 15 16 16 15 14 13 11 10 9 8 7 6 5 4 2 2 2 3 3 4 4
20 21 21 22 22 22 21 20 19 17 16 15 14 13 10 9 10 9 7 6 6 7 7 7 7 7 6 5 5 5 6 8 9 9 10 10 11 12 13 12 12 13 15 15 15 15 16 17 18 19 20 20 20 20 19 17 16 14 12 14 15 15 16 16 16 17 18 18 15 14 12 9 7 6 6 5 4 3 3 2 3 3 4 4 4
21 21 21 23 23 22 20 20 18 16 15 14 13 11 9 9 8 7 6 7 7 7 7 7 7 7 7 7 6 7 7 8 9 9 10 11 12 13 14 14 13 13 15 16 17 16 15 15 16 17 18 19 20 22 21 19 17 15 15 16 16 14 15 16 15 16 17 15 12 12 12 9 7 6 5 4 4 4 3 3 4 3 3 4 4
20 21 22 24 24 22 20 19 18 16 15 13 12 11 10 10 8 7 6 7 6 6 6 7 8 8 9 9 8 8 8 9 9 10 11 12 13 14 14 15 14 14 16 17 18 18 17 16 16 16 17 18 19 21 21 19 19 17 18 18 17 15 16 16 15 15 16 13 10 10 12 10 7 5 4 4 4 4 4 4 4 4 3 4 4
20 22 23 24 24 22 19 19 18 16 15 13 12 12 11 10 8 7 7 6 6 6 7 7 8 9 10 10 9 9 9 9 10 12 13 14 15 15 15 15 16 15 16 17 18 18 18 17 18 18 18 18 19 21 20 19 20 20 20 20 19 18 17 18 19 19 18 16 14 12 12 11 8 6 5 5 5 4 4 5 5 5 3 3 4
19 21 22 24 24 22 18 18 17 16 15 14 13 12 11 10 8 7 7 6 7 8 9 9 9 9 10 10 10 10 9 10 11 13 15 15 16 16 16 16 16 16 15 16 17 19 19 19 19 20 20 19 19 22 22 20 20 20 22 22 22 21 18 20 22 21 19 18 16 15 12 11 10 7 6 5 5 4 5 5 6 6 3 2 4
19 19 21 23 23 21 18 17 17 17 16 15 13 12 10 9 7 7 7 8 9 9 10 10 10 9 9 10 10 10 10 11 12 13 15 15 17 17 17 17 17 16 16 16 17 18 19 20 20 21 22 21 21 24 24 22 22 20 22 22 24 23 20 21 22 22 21 18 16 15 12 11 11 9 7 6 6 4 5 5 6 6 4 2 5
19 19 21 22 22 20 18 17 18 17 16 14 12 11 10 9 8 9 9 9 10 10 11 10 9 9 9 9 10 10 10 11 12 13 14 14 16 17 18 18 17 17 17 17 18 18 20 21 21 22 22 22 24 25 24 23 23 22 21 22 23 22 20 20 21 20 19 17 16 15 13 11 12 11 8 8 7 5 5 5 5 6 5 5 6
20 21 21 22 22 21 19 18 17 17 15 14 12 11 10 10 10 10 10 10 10 11 10 9 9 9 8 8 9 10 10 11 12 13 14 14 15 16 17 17 18 18 18 18 17 17 19 21 21 22 23 25 25 24 22 21 22 23 23 23 22 22 21 19 20 20 19 16 16 16 14 12 12 11 9 9 9 6 5 5 6 6 6 7 7
21 21 22 22 22 21 19 18 17 16 14 13 11 11 11 11 11 11 10 10 10 10 9 8 8 8 9 9 9 9 10 11 12 13 14 14 14 15 16 16 17 17 18 18 17 17 19 20 21 22 24 26 24 23 22 21 21 22 24 25 24 25 24 21 21 22 21 19 18 17 15 14 13 11 10 11 10 8 7 6 6 7 8 9 9
20 20 21 21 20 19 18 17 16 15 13 11 11 11 11 11 10 10 9 9 10 9 8 7 8 9 10 11 10 9 10 11 12 13 13 14 14 15 15 16 16 16 17 18 18 18 19 20 22 23 23 24 23 22 22 23 23 23 23 24 24 24 24 22 21 21 22 21 19 18 16 15 15 13 11 12 12 10 9 8 7 8 9 10 9
19 19 19 19 18 18 17 16 15 14 12 11 12 12 11 11 10 9 9 10 10 9 8 8 9 10 10 12 11 10 10 11 12 13 13 14 14 15 15 15 16 16 17 18 18 19 19 20 23 24 23 22 21 20 20 22 25 26 25 23 21 20 20 21 21 21 21 21 20 19 18 17 16 15 13 13 14 12 11 10 9 9 10 11 10
18 17 17 17 17 17 16 16 15 15 14 14 13 13 12 11 10 9 9 9 9 9 9 10 10 10 10 11 10 10 10 11 11 12 13 13 14 14 14 15 15 16 17 18 18 18 19 20 22 23 23 23 22 21 21 22 23 25 25 23 22 20 19 22 24 23 22 21 21 20 18 18 17 16 15 15 15 15 14 13 12 11 11 11 11
17 17 17 16 16 16 16 16 16 15 15 14 13 13 12 11 10 9 9 10 10 11 11 11 11 10 10 9 9 9 10 10 11 12 12 13 13 14 15 15 15 16 17 18 18 19 19 20 22 23 23 24 24 23 22 22 23 24 23 22 20 18 18 21 23 24 24 22 22 21 19 19 19 18 18 17 16 16 16 16 14 13 12 12 12
17 15 14 14 15 17 16 16 15 14 14 13 12 12 11 11 11 11 11 11 11 11 10 10 10 9 9 9 9 10 10 11 10 10 11 12 13 14 15 16 16 15 16 17 18 19 20 20 21 22 24 25 25 25 24 23 24 24 24 22 19 17 19 21 20 21 24 24 23 23 22 21 21 20 20 19 18 17 18 17 17 16 15 14 13
15 13 13 13 16 17 16 16 15 14 13 13 12 12 12 12 12 11 10 9 8 8 7 7 8 9 9 9 9 10 10 10 9 9 10 11 12 14 15 16 15 15 15 16 18 19 20 21 21 22 23 24 25 26 26 24 24 25 26 27 24 22 22 20 17 18 21 23 23 23 23 23 22 22 21 20 19 19 19 18 18 18 17 16 15
14 13 13 14 15 15 14 13 12 11 11 10 9 9 9 9 10 9 8 7 7 7 8 8 9 9 9 10 10 9 9 10 9 9 9 10 11 13 15 16 16 16 16 16 17 18 19 20 20 21 22 22 23 26 27 26 26 26 27 28 28 28 26 23 20 18 17 19 22 23 24 24 23 23 23 22 21 20 21 20 19 19 19 18 16
16 15 14 14 14 13 11 11 10 9 9 8 7 7 6 7 9 9 9 8 8 8 9 10 11 10 10 10 10 10 10 11 11 11 11 12 13 13 15 17 17 17 18 19 19 19 20 20 20 21 22 23 24 26 27 27 28 28 28 29 28 29 30 29 26 22 18 18 20 23 25 24 24 24 24 23 23 22 22 21 20 20 20 19 18
17 16 15 15 14 12 10 10 10 9 9 9 8 8 7 7 8 9 9 9 10 10 10 11 12 12 11 12 12 11 12 12 12 13 13 13 15 15 15 17 18 19 19 21 21 21 21 21 22 22 23 24 24 26 27 28 29 30 29 30 30 29 31 32 29 24 22 21 20 22 25 26 25 26 26 25 24 24 23 22 20 20 20 19 19
18 17 16 15 14 12 11 10 9 9 9 9 9 8 7 7 8 9 9 10 11 11 12 12 13 13 12 12 12 12 12 12 12 14 14 15 16 16 16 17 18 19 20 21 22 22 22 23 24 24 25 25 25 26 28 29 30 31 30 30 31 32 32 32 31 26 23 23 22 21 23 25 26 27 28 27 27 26 24 23 22 21 20 20 20
17 17 17 15 14 14 13 12 11 9 8 8 8 8 8 8 9 10 10 11 12 13 14 14 14 14 13 11 10 10 11 11 11 13 14 15 16 16 17 18 19 19 20 20 22 22 23 24 24 24 26 27 27 28 28 28 29 31 32 32 34 35 34 33 32 29 27 25 24 23 22 22 23 24 26 27 28 27 26 25 24 22 21 21 21
Wind_Direction
167 160 160 156 154 151 148 146 139 133 127 123 116 114 117 117 114 107 100 96 93 91 93 102 111 117 119 119 118 119 119 120 120 120 116 112 106 100 98 97 97 97 97 98 100 100 99 98 95 94 92 91 93 96 95 91 86 83 81 81 81 80 79 78 76 75 77 77 77 80 76 72 71 66 64 65 68 70 73 74 69 69 76 86 96
165 159 159 155 154 151 149 147 141 136 129 126 117 114 117 118 115 109 103 99 96 93 94 100 110 117 122 123 122 121 119 120 119 118 114 111 107 103 102 102 102 101 102 103 104 104 103 102 100 98 94 94 95 96 92 86 84 82 82 83 82 81 81 78 73 70 70 64 61 72 78 73 65 59 53 54 71 75 73 71 66 71 80 90 99
163 157 156 154 155 152 151 148 142 138 132 128 119 115 115 119 117 111 106 102 100 95 95 99 108 117 123 126 124 121 119 119 116 114 110 108 107 105 104 103 104 103 106 108 109 109 108 107 105 102 99 98 96 93 88 86 87 88 88 84 82 82 83 81 74 74 73 61 54 66 85 82 74 69 61 62 81 86 84 79 73 78 86 93 98
164 157 155 153 155 153 152 150 145 141 135 129 122 118 114 120 119 114 110 106 104 98 97 98 106 115 122 126 124 121 118 117 114 113 110 109 107 105 105 104 105 106 110 111 113 113 111 111 109 107 105 104 101 97 92 95 97 95 90 83 84 86 84 80 73 70 67 59 58 73 91 92 87 78 72 73 74 77 88 90 87 86 89 95 97
163 157 156 152 155 155 153 152 147 144 137 130 125 122 115 121 122 117 114 109 107 103 100 100 107 114 120 124 123 121 118 117 116 115 113 112 110 108 107 107 110 111 113 113 115 114 113 113 113 113 112 112 109 104 103 105 101 96 88 85 90 89 82 75 66 57 56 55 57 75 95 100 98 91 89 79 65 72 84 85 89 92 92 95 96
162 158 156 153 156 155 154 153 150 146 138 132 128 124 118 122 125 122 117 113 111 107 104 104 109 115 119 121 122 122 119 119 117 117 115 115 113 112 113 115 118 118 119 120 120 119 119 119 120 120 118 119 115 113 113 109 103 96 89 85 86 82 75 68 64 56 56 55 54 66 91 106 109 105 100 80 67 72 80 84 88 92 94 94 93
162 159 157 154 156 155 155 155 152 147 138 133 130 127 121 123 128 125 121 117 113 112 110 109 112 117 118 120 123 123 121 121 119 119 117 117 117 118 119 120 122 123 124 125 124 121 121 122 123 124 123 122 119 121 120 112 104 96 88 83 80 76 70 69 70 59 52 52 51 55 69 92 112 113 96 76 70 72 78 86 87 87 90 90 89
161 160 158 155 155 155 155 156 153 146 139 135 132 129 123 126 132 129 126 121 117 117 118 117 117 119 119 120 122 123 122 122 121 120 118 119 119 120 120 122 124 119 117 114 112 111 110 115 118 125 129 124 124 128 124 115 106 95 88 83 79 79 86 90 87 69 45 44 45 47 55 70 95 101 89 77 72 72 78 86 88 85 85 85 85
163 161 157 156 154 154 155 156 152 146 140 137 134 131 128 129 135 134 131 127 124 123 125 124 121 120 121 121 121 121 121 122 122 120 119 118 117 119 120 119 116 110 107 105 104 103 102 108 115 125 130 128 129 132 126 116 107 98 90 82 79 89 101 93 77 66 43 36 36 41 56 66 83 91 85 79 75 75 77 82 88 87 84 83 83
164 160 157 156 153 154 155 154 150 146 141 139 138 135 133 135 140 141 138 135 132 131 131 129 125 122 123 123 122 122 122 123 121 120 119 117 118 119 116 113 109 106 105 103 101 100 101 105 115 125 129 132 134 133 126 118 109 100 90 85 88 89 84 72 58 52 39 30 29 40 62 70 79 86 84 83 78 78 77 78 85 87 85 82 82
161 157 156 154 153 154 153 152 149 145 143 141 141 139 139 142 146 148 145 143 139 138 135 129 126 125 125 125 125 126 125 125 122 122 122 122 123 120 116 113 111 110 108 106 103 101 104 109 118 126 131 136 137 132 126 119 110 100 94 100 109 87 68 54 46 41 31 24 26 44 70 75 81 83 83 84 82 79 76 76 82 86 86 82 81
157 155 154 154 153 152 152 150 147 145 144 144 145 145 145 148 152 154 152 150 146 142 135 128 127 128 128 127 126 126 126 127 127 128 129 129 128 124 121 119 118 116 114 111 108 108 110 115 124 129 134 139 137 130 125 119 111 107 109 122 126 96 69 46 37 29 20 14 20 50 77 85 88 86 84 84 85 83 78 74 77 81 85 86 85
154 154 154 154 152 152 151 148 147 146 146 148 149 150 152 154 156 158 158 156 151 145 136 129 129 130 131 130 128 128 129 131 132 133 134 134 132 128 125 125 125 123 121 117 114 116 117 122 127 131 135 138 135 129 126 120 117 119 125 140 145 127 104 68 45 29 20 16 33 62 79 92 93 88 88 88 90 90 86 80 74 75 79 86 89
151 153 154 154 151 150 149 147 148 148 151 153 153 155 156 156 159 162 163 160 154 146 138 133 131 132 133 134 135 136 137 136 137 137 138 139 135 132 132 131 131 130 127 123 123 122 124 126 128 132 136 137 134 130 127 125 126 129 137 150 160 146 112 86 67 45 30 30 55 73 67 74 84 88 89 89 94 96 94 89 82 82 82 81 84
151 155 155 155 151 148 148 149 151 152 156 157 157 158 158 158 162 165 165 162 155 149 143 139 138 138 139 139 142 144 145 144 143 143 143 142 139 138 138 138 138 136 133 130 130 129 129 129 128 134 138 138 135 132 130 130 131 134 143 156 164 139 103 85 72 53 34 33 53 71 56 50 64 88 94 90 93 95 95 92 89 95 91 84 81
148 158 158 157 155 152 151 152 155 158 160 160 160 159 158 160 164 166 165 163 158 154 150 148 148 146 146 145 146 148 150 151 151 151 148 145 145 145 146 146 146 143 140 138 136 135 135 133 133 138 142 141 137 135 135 134 135 141 153 166 160 125 101 82 65 52 41 38 43 47 44 42 48 72 93 95 96 97 99 97 96 98 95 94 88
138 159 161 160 162 161 159 159 160 162 162 161 160 159 159 161 165 167 165 165 162 158 158 159 159 157 156 154 150 150 153 157 159 159 153 151 151 153 154 155 154 150 149 146 143 140 140 139 138 142 147 146 142 140 138 136 140 150 164 172 154 114 96 78 58 48 43 37 32 22 16 16 18 28 54 75 85 101 107 110 109 107 112 119 101
136 160 165 165 167 167 166 164 163 163 164 162 162 161 160 162 166 168 167 167 165 164 167 168 167 167 166 162 157 155 158 162 165 164 162 161 161 162 163 163 162 159 158 156 153 149 146 146 145 147 152 152 148 144 141 140 143 153 168 177 159 114 90 69 49 40 33 23 19 13 6 357 345 339 321 323 7 129 110 250 229 232 181 124 91
145 161 169 170 171 169 167 165 164 163 165 165 164 162 162 165 166 168 169 168 169 171 173 173 173 175 174 169 166 165 165 166 167 167 170 174 173 172 172 173 171 169 169 166 163 159 155 155 153 152 156 158 155 149 146 145 145 158 176 184 180 134 97 67 44 27 13 5 5 4 359 352 345 339 331 322 309 306 308 289 261 262 278 292 304
156 166 172 173 174 171 165 161 162 163 168 168 166 164 166 168 167 169 170 171 175 178 177 177 179 180 180 178 173 172 175 173 170 170 176 185 185 184 183 182 181 178 180 178 174 169 164 164 163 160 161 164 162 156 153 150 151 167 184 190 202 195 124 87 36 11 358 354 350 347 346 345 342 337 334 329 324 324 318 305 287 278 280 279 284
168 173 174 175 176 171 164 161 163 167 170 169 168 169 171 171 170 169 170 175 180 181 182 182 184 185 186 186 181 179 184 184 180 175 181 193 195 196 196 192 188 186 188 189 186 179 173 170 170 169 167 169 169 165 161 157 159 171 189 201 211 223 226 276 353 360 347 341 340 337 336 338 339 333 327 323 320 320 320 316 304 295 296 293 293
175 174 172 174 175 170 167 167 169 170 170 169 171 172 174 174 172 171 173 181 184 185 187 186 187 188 190 192 189 188 190 191 189 184 186 196 202 206 207 205 199 191 191 193 193 189 182 176 174 173 172 173 174 171 165 162 164 169 191 216 217 226 251 272 312 354 343 342 351 347 338 337 336 328 321 316 314 313 313 313 307 305 306 305 300
177 174 169 172 174 172 173 175 174 172 171 169 169 172 175 175 171 171 176 183 186 188 188 188 188 190 193 195 194 194 195 195 194 192 192 195 201 211 214 215 213 202 197 196 196 194 189 184 178 174 174 174 175 173 168 164 166 166 189 233 241 240 258 279 311 341 338 340 346 344 339 336 333 325 319 315 309 306 308 307 309 313 310 308 304
176 175 170 173 175 176 177 178 177 174 172 169 168 172 174 173 168 170 177 182 184 186 186 186 189 191 193 195 196 195 196 197 196 197 200 198 198 211 218 220 223 217 209 204 201 197 193 190 185 179 175 174 172 172 170 167 169 168 184 235 256 254 262 287 318 329 327 327 332 341 342 336 333 326 320 315 307 304 305 305 309 308 304 304 303
174 174 174 178 177 181 182 179 180 178 174 171 171 174 174 171 169 172 178 182 181 182 183 185 189 191 193 196 197 194 196 200 199 196 204 212 204 212 221 225 227 226 220 213 209 205 199 195 190 184 179 176 174 174 175 173 169 163 171 212 257 270 275 285 308 315 312 317 324 336 341 335 330 325 320 317 313 308 305 305 304 299 297 299 298
176 175 174 180 181 185 185 181 182 181 177 176 176 176 174 173 172 177 182 182 181 183 184 186 190 191 195 200 198 199 206 210 208 199 199 216 223 230 236 237 234 232 229 222 217 213 206 202 197 189 185 183 182 182 180 173 165 159 167 192 241 268 281 284 289 298 299 306 314 324 332 331 325 322 320 317 316 308 303 301 296 293 294 298 297
181 180 175 178 185 187 186 184 184 182 180 180 180 179 177 176 176 181 187 188 185 186 189 191 194 195 199 202 202 206 213 218 218 207 202 213 234 250 257 255 246 240 236 230 225 221 214 209 204 198 194 192 191 190 188 182 174 173 185 201 229 251 270 279 281 287 289 294 304 315 326 326 321 322 320 316 313 304 297 291 287 286 285 292 293
184 186 181 180 186 188 188 187 184 183 184 185 183 182 184 182 182 187 192 195 192 192 197 197 197 200 204 204 202 208 213 222 226 222 220 227 238 248 257 259 256 250 242 236 231 227 222 217 211 207 204 202 201 200 204 206 195 189 199 214 234 248 263 276 279 279 280 287 297 310 322 321 317 317 316 313 309 303 300 287 280 281 278 283 275
184 188 189 187 186 187 188 188 185 184 186 189 187 186 191 193 192 193 195 198 196 199 205 206 203 203 208 212 215 221 226 234 241 248 249 246 245 246 253 258 260 260 253 244 236 231 227 223 219 215 213 212 212 213 221 222 211 206 218 241 247 250 264 273 274 271 275 284 294 307 316 316 313 309 309 310 305 303 305 291 281 285 278 267 252
181 187 191 191 187 185 186 187 187 184 183 188 191 191 196 202 201 198 200 199 196 201 210 216 218 214 215 227 239 241 241 247 251 261 266 263 258 255 256 258 260 261 260 253 242 235 230 227 225 223 221 220 220 222 225 226 219 218 236 260 253 251 261 264 266 269 274 282 290 301 308 311 309 302 304 306 305 311 307 271 258 274 272 259 246
182 186 188 189 187 185 185 187 187 182 180 184 189 191 196 205 205 203 206 202 199 212 221 229 235 232 234 246 255 256 260 262 259 264 269 270 267 263 262 263 261 256 256 256 249 242 235 230 226 226 226 225 226 224 222 225 223 220 231 252 249 248 256 256 259 265 272 280 286 294 300 306 305 295 299 302 304 311 280 230 254 259 267 260 235
180 183 184 186 186 185 186 187 185 182 182 185 187 187 193 205 207 207 215 215 215 225 232 240 245 245 250 260 268 269 270 268 267 269 272 274 270 265 264 267 267 255 250 252 251 248 241 234 226 225 226 225 227 225 223 226 223 219 232 247 244 245 254 255 257 263 271 276 281 290 296 302 300 290 294 298 304 296 251 273 288 260 262 253 216
173 178 181 185 186 186 186 186 185 184 184 187 187 183 190 203 206 207 213 217 222 230 233 241 251 257 261 267 270 266 265 265 270 275 277 277 272 268 266 268 271 261 252 249 249 249 247 242 230 224 225 224 227 227 225 225 223 227 240 247 246 244 246 247 250 258 265 267 274 288 295 296 293 285 285 287 300 289 264 293 286 246 244 232 198
166 175 181 184 187 187 187 187 185 185 186 186 185 183 191 199 203 206 204 210 221 230 233 239 250 259 263 267 271 270 269 268 270 275 278 278 273 271 272 273 271 263 257 252 251 251 250 248 238 229 228 227 229 231 228 227 228 234 242 245 247 244 238 238 241 246 253 260 273 287 292 290 283 275 272 277 296 293 276 281 263 240 230 214 184
165 172 180 183 186 186 187 189 187 185 185 183 182 184 192 196 201 207 209 220 229 236 242 249 254 259 264 268 274 276 276 275 272 273 277 278 275 273 276 276 271 263 259 255 253 252 252 251 247 243 238 233 232 235 234 235 235 237 241 242 245 245 238 239 243 245 251 263 273 280 282 279 273 265 261 268 289 298 282 268 258 255 242 207 183
165 170 176 180 183 185 185 188 187 185 183 182 183 185 189 194 198 205 215 232 237 242 248 254 258 261 267 271 274 277 281 282 278 276 278 278 278 277 277 277 272 265 261 256 252 250 251 251 251 251 247 240 238 239 239 242 243 242 245 242 239 243 244 246 248 249 254 260 263 268 269 265 263 259 257 259 270 289 281 264 257 260 259 199 183
162 166 171 176 179 180 181 184 185 184 183 183 183 184 186 192 199 205 218 231 237 244 248 253 261 264 270 274 277 280 283 283 280 279 280 279 278 277 277 276 273 268 263 258 252 251 253 253 253 252 250 246 243 241 239 243 247 249 253 246 236 239 245 248 250 251 256 255 251 256 259 255 256 257 257 253 251 269 273 262 252 246 245 192 177
156 161 166 172 173 174 175 178 181 182 184 184 182 181 185 192 199 207 218 227 234 243 250 256 261 266 273 279 281 283 282 280 280 282 282 281 278 276 276 275 273 270 265 259 253 252 255 256 255 253 251 247 243 242 242 242 245 248 254 253 244 240 241 244 249 252 253 249 243 249 250 246 252 257 255 245 242 255 257 253 244 231 216 178 166
153 159 164 169 172 174 175 175 180 182 183 183 179 180 185 193 201 210 221 227 234 243 254 262 265 272 280 282 282 283 284 283 284 284 285 285 282 279 278 277 275 272 269 263 256 253 255 256 257 255 252 246 241 244 248 246 246 248 252 257 256 249 245 245 248 249 248 245 243 246 243 239 247 253 249 241 240 241 234 236 234 219 194 170 159
154 159 162 167 172 176 176 177 180 181 182 182 179 182 188 197 205 215 225 233 242 247 254 261 269 281 286 287 286 286 288 288 287 287 288 289 286 282 279 278 277 273 268 264 260 257 257 258 258 257 256 252 248 246 247 246 248 251 253 256 256 253 251 247 244 244 245 243 242 243 241 241 245 248 244 239 238 233 220 218 219 205 184 169 160
155 160 162 166 171 175 177 178 180 181 181 182 182 188 195 204 211 221 231 240 246 251 259 267 275 284 287 287 287 289 293 294 294 293 291 290 288 286 282 281 280 275 269 265 260 256 257 259 259 259 260 261 260 252 246 244 247 250 254 257 257 257 255 249 241 239 239 239 239 239 239 243 246 245 242 237 237 231 215 207 203 197 184 171 165
153 156 159 162 168 174 177 179 179 178 179 184 189 195 201 209 217 224 230 235 241 249 257 263 269 274 277 281 285 292 299 303 301 297 294 291 289 288 286 285 282 275 269 265 259 255 254 257 261 264 264 264 263 257 250 248 248 250 252 255 257 255 254 252 246 239 236 237 237 236 237 243 246 245 242 238 238 232 215 204 199 196 187 176 171
150 152 156 161 168 172 177 180 178 175 178 185 192 197 203 210 219 225 232 241 249 255 259 262 265 267 270 277 287 297 305 309 306 300 297 293 290 290 288 285 281 274 267 262 259 257 257 259 263 267 268 265 262 258 254 252 253 254 252 252 253 252 250 250 247 241 238 235 233 234 235 240 244 244 244 241 240 234 219 209 204 199 191 184 178
145 147 150 154 163 169 174 176 176 177 181 187 193 197 204 214 223 229 240 250 257 262 265 268 268 269 274 281 291 299 305 310 308 304 302 298 293 289 287 282 277 274 269 264 261 260 263 265 267 267 266 264 263 260 258 255 253 252 250 248 249 249 248 249 248 245 241 234 233 236 234 235 238 242 245 242 240 233 222 214 210 206 198 193 190
140 141 141 142 150 159 166 169 172 177 182 187 191 197 206 216 228 237 243 247 253 260 264 268 271 274 278 283 293 297 300 305 308 308 306 304 295 288 285 281 276 273 270 268 267 266 266 266 267 265 263 262 263 263 261 258 254 250 247 244 243 242 246 251 251 247 242 236 235 235 231 232 234 239 244 244 238 229 222 217 212 210 206 203 202
130 131 134 141 147 152 159 164 170 176 183 190 195 203 211 218 228 234 232 231 235 244 252 261 271 280 282 285 292 296 298 301 306 308 305 302 294 286 283 280 277 273 270 270 270 269 267 266 267 265 264 263 264 263 261 258 255 251 247 246 245 246 250 253 247 243 241 236 235 234 232 232 234 238 242 242 237 228 221 218 214 213 212 211 208
130 133 134 140 147 152 157 163 167 173 182 193 201 209 216 221 222 216 209 204 206 220 236 246 257 269 277 284 290 294 297 302 306 306 300 291 283 280 279 277 274 271 270 270 270 271 271 271 271 269 268 267 266 265 263 260 256 252 248 248 247 247 250 250 245 242 238 232 232 233 234 234 232 233 237 237 237 230 221 218 215 213 215 216 212
141 141 139 140 146 149 154 158 160 165 171 180 191 197 203 208 208 206 209 211 213 224 236 244 252 261 270 278 284 289 294 300 303 301 294 283 276 275 276 274 273 273 272 272 273 275 276 275 274 272 270 267 265 264 264 263 260 257 254 251 249 248 247 247 246 243 237 229 228 229 231 234 232 231 233 234 234 230 222 220 218 214 214 218 216
146 145 145 147 150 153 157 162 161 160 164 169 175 184 186 185 193 202 210 217 221 228 238 249 257 264 272 277 280 284 288 291 294 294 291 285 279 278 275 272 273 273 274 275 275 275 276 276 274 272 271 269 267 265 264 263 261 260 258 256 254 251 247 245 245 243 240 233 227 227 226 226 228 231 231 231 231 228 223 222 222 218 215 217 217
150 150 151 153 157 161 166 171 169 161 163 171 175 182 189 190 200 208 213 220 224 228 242 255 260 265 271 276 279 281 281 282 287 290 289 285 282 282 278 273 274 274 274 276 276 275 274 274 272 272 271 269 267 265 263 263 261 260 259 258 256 252 246 243 240 237 236 231 228 232 231 225 227 231 231 229 228 228 226 225 224 220 218 218 217
153 152 153 155 156 157 163 169 171 170 176 189 195 199 207 211 216 219 221 227 231 234 244 254 260 264 267 270 275 280 282 283 284 286 287 284 283 283 281 279 278 277 276 277 276 275 273 272 271 271 269 267 265 263 262 260 259 259 258 256 255 252 247 245 244 238 232 227 226 230 234 234 235 237 236 230 227 227 227 225 223 221 219 217 217